Regional Weather Roundup
Issued by NWS New Orleans/Baton Rouge, LA

Home | Current Version | Previous Version | Text Only | Print | Product List | Glossary Off
Versions: 1 2 3 4 5 6 7 8 9 10 11 12 13 14 15 16 17 18 19 20 21 22 23 24 25 26 27 28 29 30 31 32 33 34 35 36 37 38 39 40 41 42 43 44 45 46 47 48 49 50

191
ASUS44 KLIX 181001
RWRLIX
NEW ORLEANS REGIONAL WEATHER ROUNDUP
NATIONAL WEATHER SERVICE NEW ORLEANS LA
400 AM CST THU DEC 18 2014

NOTE: "FAIR" INDICATES FEW OR NO CLOUDS BELOW 12,000 FEET WITH NO
      SIGNIFICANT WEATHER AND/OR OBSTRUCTIONS TO VISIBILITY.
      SKY/WX - SKY CONDITION AND SIGNIFICANT WEATHER.
      TMP - AIR TEMPERATURE.     DP    - DEWPOINT TEMPERATURE.
      RH  - RELATIVE HUMIDITY.   PRES  - PRESSURE.
      HI  - HEAT INDEX.          WCI   - WIND CHILL INDEX.

*  THESE STATIONS ARE NOT NWS OR FAA STATIONS AND ARE NOT UNDER
   NWS QUALITY CONTROL.

LAZ038-040-048-061>063-065>067-069-181100-
SOUTHEAST LOUISIANA

CITY           SKY/WX    TMP DP  RH WIND       PRES   REMARKS
N.O. AUDUBON     N/A     53  47  80 MISG        N/A
N.O. INTL ARPT MOCLDY    50  44  80 CALM      30.17S
N.O. LAKEFRONT CLOUDY    56  49  77 E7        30.18S
N.O. DOWNTOWN*   N/A     55  45  67 NE3       30.17F
SLIDELL        CLOUDY    43  40  89 N3        30.17F
BATON ROUGE    CLOUDY    47  42  83 NE3       30.16F
BOOTHVILLE     MOCLDY    55  51  86 NE3       30.16S
BELLE CHASSE   MOCLDY    46  44  93 NE3       30.16F
BOGALUSA*        N/A     43  40  89 CALM      30.20S
GALLIANO*      NOT AVBL
NEW ROADS*     NOT AVBL
GONZALES*      NOT AVBL
HAMMOND*       NOT AVBL
HOUMA*         NOT AVBL
PORT FOURCHON* SUNNY     61  55  82 E5        30.17S

$$

MSZ070-080>082-181100-
SOUTHERN MISSISSIPPI

CITY           SKY/WX    TMP DP  RH WIND       PRES   REMARKS
MCCOMB         CLOUDY    46  41  82 CALM      30.17F
GULFPORT       CLOUDY    47  41  80 CALM      30.17F
BILOXI         CLOUDY    46  42  86 NE3       30.18S
PASCAGOULA     MOCLDY    41  39  93 CALM      30.18S

$$

COASTAL OBSERVATIONS
LAKE AND NEARSHORE STATIONS

STATION/POSITION TIME  TEMP    WIND        PRES    WAVE
                       AIR SEA DIR/SP/G            HT/PER
                 (UTC) (F)     (DEG/KT/KT) (MB)    (FT/S)
PASCAGOULA       0900   48      10/  5/  6 1021.4
WAVELAND YACHT   0900   51      70/  8/  9 1020.8
GRAND ISLE       0900   60 62   90/  5/  8 1021.3
SOUTHWEST PASS   0900   57                 1020.8
NEW CANAL        0900   53 57   80/  2/  3 1022.1
SHELL BEACH      0900   56 59   60/  7/  8 1021.3

OFFSHORE STATIONS

STATION/POSITION TIME  TEMP    WIND        PRES    WAVE
                       AIR SEA DIR/SP/G            HT/PER
                 (UTC) (F)     (DEG/KT/KT) (MB)    (FT/S)
64 S DAUPHIN ISL 1000   63 74   70/  4/  6 1020.5    1/ 6

$$




USA.gov is the U.S. government's official web portal to all federal, state and local government web resources and services.